Regional Weather Roundup
Issued by NWS

Home | Current Version | Previous Version | Text Only | Print | Product List | Glossary Off
Versions: 1 2 3 4 5 6 7 8 9 10 11 12 13 14 15 16 17 18 19 20 21 22 23 24 25 26 27 28 29 30 31 32 33 34 35 36 37 38 39 40 41 42 43 44 45 46 47 48 49 50

000
ASUS45 KABQ 221801
RWRNM
NEW MEXICO REGIONAL WEATHER ROUNDUP
NATIONAL WEATHER SERVICE ALBUQUERQUE NM
1100 AM MST SUN JAN 22 2017

NOTE: "FAIR" MEANS FEW OR NO CLOUDS BELOW 12,000 FEET AGL WITH NO
       SIGNIFICANT WEATHER OR OBSTRUCTIONS TO VISION.

      THIS PRODUCT IS RELEASED AS TWO VERSIONS.  ONE VERSION NEAR
      THE TOP OF THE HOUR CONTAINING PRELIMINARY DATA FROM ALBUQUERQUE
      AND OTHER STATIONS.  A FINAL VERSION WITH ADDITIONAL DATA IS
      ISSUED ABOUT 10 MINUTES AFTER THE HOUR.

NMZ501-503-504-510>518-221900-
NORTHWEST PLATEAU/NORTHCENTRAL MOUNTAINS

CITY           SKY/WX    TMP DP  RH WIND       PRES   REMARKS
FARMINGTON     FAIR      31  23  72 E3        30.19R
6HR MIN TEMP:  24; 6HR MAX TEMP:  32;

LOS ALAMOS     PTSUNNY   29  20  68 E5        30.16R WCI  24
SANTA FE       FAIR      35  19  52 W7        30.15S WCI  29
6HR MIN TEMP:  24; 6HR MAX TEMP:  35;

TAOS           FAIR      28  12  50 SW14      30.14R WCI  17
ANGEL FIRE     FAIR      21  17  81 W20G29    30.09R WCI   6

$$
NMZ402-403-502-505>509-221900-
WESTCENTRAL MOUNTAINS/SOUTHWEST MOUNTAINS

CITY           SKY/WX    TMP DP  RH WIND       PRES   REMARKS
GALLUP         CLOUDY    30  24  78 SW7       30.21R WCI  23
6HR MIN TEMP:   9; 6HR MAX TEMP:  30;

GRANTS         FAIR      32  19  58 NW8G16    30.22R WCI  25

$$
NMZ407-409-411-412-221900-
SOUTHERN DESERTS

CITY           SKY/WX    TMP DP  RH WIND       PRES   REMARKS
DEMING         FAIR      44  32  62 W13       30.23S
6HR MIN TEMP:  31; 6HR MAX TEMP:  44;

LAS CRUCES     FAIR      43  25  49 W6        30.24R
ALAMOGORDO     FAIR      46  19  34 N17       30.20S
T OR C         FAIR      45  17  32 CALM      30.19R
6HR MIN TEMP:  34; 6HR MAX TEMP:  45;


$$
NMZ519>523-221900-
CENTRAL VALLEYS/CENTRAL HIGHLANDS

CITY           SKY/WX    TMP DP  RH WIND       PRES   REMARKS
ALBUQUERQUE    PTSUNNY   36  21  54 CALM      30.20S
6HR MIN TEMP:  27; 6HR MAX TEMP:  39;

MORIARTY ARPT  FAIR      37  14  39 NW21G30   30.15R WCI  27
6HR MIN TEMP:  26; 6HR MAX TEMP:  38;

CLINES CORNERS FAIR      31  18  58 NW32G46   30.04R WCI  16
6HR MIN TEMP:  22; 6HR MAX TEMP:  31;

BELEN          FAIR      41  16  36 NW7       30.19S
6HR MIN TEMP:  27; 6HR MAX TEMP:  41;

SOCORRO        FAIR      45  19  36 N13       30.18R
6HR MIN TEMP:  35; 6HR MAX TEMP:  45;


$$
NMZ524>526-539-540-221900-
SOUTHCENTRAL MOUNTAINS

CITY           SKY/WX    TMP DP  RH WIND       PRES   REMARKS
RUIDOSO        FAIR      36  12  38 NW28G35   30.10F WCI  23

$$
NMZ527>531-221900-
NORTHEAST HIGHLANDS/NORTHEAST PLAINS

CITY           SKY/WX    TMP DP  RH WIND       PRES   REMARKS
LAS VEGAS      FAIR      36  20  52 NE9       30.02R WCI  29
6HR MIN TEMP:  21; 6HR MAX TEMP:  37;

RATON          FAIR      43   8  23 S8        29.97R
6HR MIN TEMP:  22; 6HR MAX TEMP:  43;

CLAYTON        FAIR      48  28  46 N18G24    29.97R
6HR MIN TEMP:  29; 6HR MAX TEMP:  48;


$$
NMZ532>537-221900-
EASTCENTRAL PLAINS

CITY           SKY/WX    TMP DP  RH WIND       PRES   REMARKS
TUCUMCARI      FAIR      52  21  29 W12       29.99S
6HR MIN TEMP:  27; 6HR MAX TEMP:  53;

CANNON AFB     FAIR      50  21  31 W14G20    30.01R
6HR MIN TEMP:  33; 6HR MAX TEMP:  50;

CLOVIS AIRPORT FAIR      52  25  35 NW8       30.01R

$$
NMZ028-029-538-221900-
SOUTHEAST PLAINS

CITY           SKY/WX    TMP DP  RH WIND       PRES   REMARKS
ROSWELL        FAIR      54  13  19 NW28G40   30.05R
6HR MIN TEMP:  42; 6HR MAX TEMP:  54;

ARTESIA        FAIR      57  14  18 NW15      30.08F
CARLSBAD       FAIR      57  18  21 W14       30.08S
6HR MIN TEMP:  40; 6HR MAX TEMP:  57;

HOBBS          SUNNY     52  21  30 W21G26    30.08R


$$




USA.gov is the U.S. government's official web portal to all federal, state and local government web resources and services.